CAPE
1492 1226 1928 1631 1455 1174 1335 1142 945 704 321 453 333 340 309 428 450 750 295 79 64 102 129 162 240 415 581 790 687 769 524 197 18 0 0 0 10 27 13 15 4 1 1
1092 745 1005 1576 1122 1192 1150 870 783 731 653 546 411 487 455 324 400 427 97 14 14 3 5 15 32 32 68 137 253 469 446 220 0 0 10 20 29 34 34 29 8 0 6
1464 1009 1496 1423 1250 1309 1143 993 784 707 610 399 424 406 234 202 214 237 138 13 13 6 3 0 5 90 20 234 130 3 0 0 0 0 14 11 19 25 13 22 8 13 0
823 1543 1463 1601 1472 1213 1290 1166 1003 801 622 505 361 272 200 138 60 80 30 60 8 0 0 0 0 0 0 206 152 2 0 1 1 6 5 6 3 10 26 4 8 10 7
688 1344 1926 1895 1827 1490 1384 1236 999 882 640 551 435 191 108 0 0 0 23 16 21 4 0 0 0 0 0 0 0 3 0 0 0 5 20 19 12 8 4 0 0 1 0
1177 1999 2167 1996 1721 1685 1619 1170 1187 904 716 625 474 247 0 0 0 0 0 2 11 12 9 0 0 0 0 0 0 7 7 0 0 0 0 2 0 0 0 4 2 2 1
1506 1874 1921 2147 1889 1814 1714 1246 1011 999 885 553 297 101 0 0 0 0 0 15 7 14 2 0 0 0 0 0 0 0 0 0 2 21 15 27 16 22 23 45 33 48 40
1823 1727 1477 1522 1523 1146 1907 1457 1218 989 824 624 509 298 0 0 0 0 0 30 16 13 0 0 0 0 0 0 0 0 0 0 0 0 0 0 0 0 1 15 72 83 64
1533 960 495 966 1221 1024 1557 1607 1530 1139 791 432 435 211 11 0 0 0 0 54 29 13 0 0 0 0 0 0 0 0 0 0 0 0 0 0 0 0 0 0 16 58 55
581 598 358 310 478 610 957 1712 1497 887 597 241 290 184 21 0 0 0 0 2 39 0 0 2 0 0 0 0 10 2 0 0 0 0 0 0 0 0 0 0 0 0 0
892 380 97 238 200 502 303 615 956 1122 625 363 271 94 64 0 0 0 0 12 0 0 6 2 0 3 7 0 0 0 0 0 3 13 34 30 27 12 0 0 0 0 0
852 581 342 315 467 398 583 451 698 509 568 330 174 67 32 2 0 0 0 0 0 0 0 2 1 0 0 0 0 0 0 0 0 17 66 13 0 0 0 0 0 0 0
688 681 478 312 245 373 462 1369 725 655 451 290 154 86 47 0 0 0 0 0 0 0 0 1 0 0 0 0 0 0 0 0 2 32 10 1 0 0 0 22 38 46 51
365 201 111 103 129 111 125 304 391 368 338 301 256 203 45 3 2 0 0 0 0 0 0 0 0 8 3 0 0 0 0 0 0 0 0 0 3 9 22 0 0 0 0
490 485 403 350 274 187 156 131 105 194 183 413 221 229 234 6 1 0 0 0 0 0 0 0 2 3 0 0 0 6 8 0 8 0 4 6 14 3 7 0 13 18 11
288 189 150 141 132 132 107 99 154 102 64 164 194 157 100 8 5 1 0 1 0 0 0 0 0 0 0 16 23 11 0 0 5 5 16 0 2 11 0 7 17 12 25
267 191 106 72 67 28 20 24 66 144 162 150 241 59 20 18 8 6 7 8 2 0 0 0 0 1 53 11 8 27 9 5 3 30 10 14 11 18 0 33 27 39 16
15 5 1 77 10 27 13 0 0 2 5 6 73 67 64 11 5 6 4 3 0 0 0 0 0 56 33 15 23 28 18 18 16 19 14 14 21 14 21 34 31 43 12
32 8 14 6 19 0 2 2 2 30 38 163 60 8 9 3 5 1 0 0 0 0 0 0 5 12 25 37 77 78 30 33 8 4 6 42 48 32 41 43 34 15 3
44 1 1 10 4 1 1 4 0 1 1 2 1 14 49 10 0 0 0 0 0 0 0 0 23 37 29 83 75 52 20 11 28 17 47 68 70 57 24 2 2 0 0
17 30 5 9 19 24 8 8 69 52 27 23 2 0 0 0 0 0 0 0 0 0 9 37 16 22 49 92 67 43 27 39 39 49 57 95 36 25 42 11 7 3 3
116 24 17 7 20 28 38 38 59 39 69 51 2 0 0 0 0 0 0 0 0 0 24 41 5 19 11 24 24 40 39 34 62 62 59 29 19 24 25 1 0 4 1
153 19 18 9 6 21 3 0 14 9 4 0 0 0 0 0 0 0 8 1 2 1 21 34 6 14 28 72 86 46 24 41 29 18 22 21 13 2 0 0 0 0 0
196 85 49 6 4 50 30 22 5 2 1 9 3 1 0 0 0 4 17 43 30 34 60 16 9 2 1 33 10 5 2 0 0 1 0 0 0 0 0 0 0 0 0
183 174 124 43 1 28 26 16 16 0 0 0 31 23 17 0 0 0 106 48 54 36 13 4 9 0 0 6 1 0 0 0 0 0 0 0 0 0 0 0 0 0 0
273 216 204 192 29 74 71 44 10 3 2 2 3 4 10 7 10 24 17 5 6 7 9 6 5 2 4 0 0 0 0 0 0 0 0 0 0 0 0 0 0 0 0
CIN
-10 -17 -2 -1 -0 -3 -1 -3 -2 -2 -28 -13 -9 -6 -13 -1 -1 -5 -7 -86 -106 -85 -53 -42 -14 -5 -3 -3 -13 -10 -12 -13 -77 -20 -0 -0 -13 -6 -34 -6 -8 -0 -14
-12 -29 -17 -1 -1 -0 -2 -9 -0 -0 -0 -1 -5 -1 -2 -2 -4 -3 -47 -1 -1 -0 -9 -8 -137 -108 -46 -22 -5 -1 -2 -10 -0 -0 -6 -0 -0 -0 -0 -1 -1 -0 -1
-3 -35 -5 -0 -0 -1 -1 -3 -0 -0 -3 -2 -0 -2 -1 -4 -3 -2 -30 -6 -2 -2 -4 -0 -3 -40 -30 -6 -16 -7 -0 -0 -0 -0 -13 -0 -1 -0 -4 -2 -5 -2 -0
-4 -1 -8 -4 -1 -0 -0 -0 -0 -0 -0 -1 -3 -0 -2 -2 -6 -9 -6 -13 -3 -0 -0 -0 -0 -0 -0 -6 -2 -0 -0 -0 -0 -0 -0 -2 -8 -7 -0 -2 -0 -0 -1
-23 -18 -4 -3 -0 -1 -0 -0 -0 -0 -0 -0 -0 -0 -0 -3 -0 -6 -3 -2 -3 -2 -0 -0 -0 -0 -0 -0 -0 -0 -0 -0 -1 -2 -1 -0 -0 -0 -3 -0 -0 -0 -0
-12 -11 -7 -6 -8 -0 -0 -2 -0 -1 -0 -0 -0 -1 -0 -0 -0 -0 -0 -2 -2 -2 -3 -0 -0 -0 -0 -0 -0 -0 -0 -0 -0 -0 -0 -0 -0 -0 -0 -14 -4 -16 -0
-9 -7 -8 -4 -1 -2 -2 -2 -6 -2 -0 -0 -7 -24 -0 -0 -0 -0 -0 -2 -2 -2 -12 -4 -4 -0 -0 -0 -0 -0 -0 -0 -6 -7 -3 -4 -4 -5 -12 -4 -8 -9 -14
-12 -20 -30 -17 -15 -23 -1 -5 -7 -1 -1 -0 -0 -6 -0 -0 -0 -0 -0 -1 -2 -3 -0 -0 -0 -0 -0 -0 -0 -0 -0 -0 -0 -0 -0 -0 -0 -0 -0 -2 -7 -5 -9
-10 -20 -30 -19 -18 -27 -4 -1 -1 -0 -0 -1 -1 -6 -8 -0 -0 -0 -0 -1 -1 -4 -0 -0 -0 -0 -0 -0 -0 -0 -0 -0 -0 -0 -0 -0 -0 -0 -0 -0 -9 -18 -17
-15 -45 -60 -35 -14 -5 -6 -0 -1 -1 -10 -24 -1 -5 -13 -0 -0 -0 -0 -1 -2 -0 -0 -0 -0 -0 -0 -0 -7 -0 -1 -0 -0 -0 -0 -0 -0 -0 -0 -0 -0 -0 -0
-16 -102 -155 -78 -9 -20 -11 -6 -13 -1 -2 -7 -6 -32 -42 -0 -0 -0 -0 -7 -0 -3 -0 -0 -0 -1 -1 -0 -0 -0 -0 -0 -3 -36 -36 -62 -77 -77 -0 -0 -0 -0 -0
-32 -74 -71 -27 -8 -41 -20 -24 -12 -12 -1 -5 -11 -31 -65 -4 -0 -0 -0 -0 -0 -1 -0 -7 -1 -0 -0 -0 -0 -0 -0 -0 -0 -42 -24 -59 -0 -0 -0 -0 -0 -0 -0
-72 -58 -72 -90 -101 -77 -48 -0 -9 -0 -0 -0 -17 -33 -34 -0 -0 -0 -0 -0 -0 -0 -0 -0 -0 -0 -0 -0 -0 -0 -0 -0 -41 -34 -53 -33 -0 -0 -0 -35 -49 -58 -61
-126 -162 -40 -45 -167 -153 -144 -59 -26 -17 -5 -4 -4 -3 -42 -4 -0 -0 -0 -0 -0 -0 -0 -0 -0 -4 -0 -0 -0 -0 -0 -0 -0 -0 -0 -0 -19 -32 -31 -0 -0 -0 -2
-122 -119 -99 -113 -104 -94 -93 -92 -99 -57 -43 -8 -8 -2 -5 -0 -0 -0 -0 -0 -0 -0 -0 -0 -11 -0 -0 -0 -0 -20 -44 -0 -16 -0 -17 -20 -23 -11 -45 -0 -32 -38 -27
-165 -166 -140 -119 -104 -118 -83 -96 -73 -47 -73 -20 -0 -9 -15 -0 -0 -0 -0 -6 -0 -0 -0 -0 -0 -0 -0 -31 -30 -37 -0 -0 -17 -14 -16 -0 -14 -27 -0 -49 -31 -27 -26
-125 -128 -167 -128 -90 -83 -88 -154 -113 -65 -45 -30 -0 -18 -56 -39 -0 -1 -6 -13 -15 -0 -0 -0 -0 -3 -19 -30 -23 -19 -38 -53 -21 -29 -14 -15 -12 -15 -0 -24 -22 -34 -31
-146 -0 -2 -129 -91 -84 -85 -1 -0 -15 -17 -3 -26 -13 -10 -1 -0 -4 -0 -0 -0 -0 -0 -0 -0 -35 -26 -23 -15 -17 -49 -60 -45 -16 -13 -11 -12 -14 -26 -17 -33 -30 -34
-98 -0 -0 -0 -3 -0 -0 -0 -0 -76 -19 -14 -7 -1 -4 -2 -1 -0 -0 -0 -0 -0 -0 -0 -2 -26 -30 -22 -20 -45 -39 -35 -32 -16 -20 -21 -24 -18 -23 -22 -24 -11 -9
-44 -2 -2 -19 -0 -0 -0 -0 -0 -0 -0 -0 -0 -19 -28 -4 -0 -0 -0 -0 -0 -0 -0 -0 -43 -41 -29 -17 -33 -29 -26 -36 -44 -43 -47 -39 -22 -17 -22 -17 -14 -0 -0
-5 -4 -0 -10 -7 -4 -0 -0 -0 -0 -4 -1 -0 -0 -0 -0 -0 -0 -0 -0 -0 -0 -17 -8 -15 -31 -19 -34 -24 -25 -11 -9 -54 -40 -36 -24 -55 -22 -18 -16 -16 -15 -20
-13 -3 -1 -3 -2 -3 -19 -5 -24 -5 -7 -11 -0 -0 -0 -0 -0 -0 -0 -0 -0 -0 -7 -22 -10 -29 -20 -21 -56 -22 -19 -18 -13 -21 -20 -31 -30 -30 -15 -6 -0 -11 -9
-15 -4 -0 -10 -2 -0 -0 -0 -0 -1 -1 -0 -0 -0 -0 -0 -0 -0 -10 -3 -5 -3 -12 -15 -7 -16 -70 -47 -31 -29 -11 -15 -32 -55 -51 -42 -39 -11 -0 -0 -0 -0 -0
-3 -3 -0 -15 -1 -0 -0 -0 -8 -16 -8 -17 -6 -0 -0 -0 -0 -10 -15 -20 -36 -28 -25 -29 -38 -30 -13 -27 -43 -14 -6 -0 -0 -1 -0 -0 -0 -0 -0 -0 -0 -0 -0
-16 -0 -1 -13 -31 -0 -0 -2 -0 -0 -0 -0 -57 -108 -112 -0 -0 -0 -3 -36 -30 -38 -55 -1 -40 -0 -0 -33 -3 -0 -0 -0 -0 -0 -0 -0 -0 -0 -0 -0 -0 -0 -0
-4 -1 -0 -0 -20 -0 -0 -1 -0 -0 -1 -0 -2 -2 -12 -20 -5 -6 -25 -6 -17 -0 -0 -1 -3 -0 -7 -0 -0 -0 -0 -0 -0 -0 -0 -0 -0 -0 -0 -0 -0 -0 -0
Wind_Speed
21 19 15 9 10 10 12 12 7 7 6 3 2 2 3 4 6 8 10 nan nan 11 9 6 6 4 6 10 12 14 13 13 nan nan nan nan nan nan nan nan nan nan nan
23 16 10 7 8 11 13 13 11 10 9 9 10 9 9 9 9 10 nan nan nan nan nan nan nan nan nan 12 14 16 14 13 nan nan nan nan nan nan nan nan nan nan nan
25 24 9 6 9 14 12 14 12 11 14 14 10 10 10 9 10 10 12 nan nan nan nan nan nan nan nan 16 17 nan nan nan nan nan nan nan nan nan nan nan nan nan nan
28 27 21 13 11 12 10 11 13 14 16 18 14 10 9 11 nan nan nan nan nan nan nan nan nan nan nan 17 20 nan nan nan nan nan nan nan nan nan nan nan nan nan nan
22 23 22 19 18 13 9 11 15 15 17 14 14 11 12 nan nan nan nan nan nan nan nan nan nan nan nan nan nan nan nan nan nan nan nan nan nan nan nan nan nan nan nan
24 24 22 22 22 17 15 14 16 17 13 13 13 14 nan nan nan nan nan nan nan nan nan nan nan nan nan nan nan nan nan nan nan nan nan nan nan nan nan nan nan nan nan
23 21 29 29 22 20 22 14 17 18 18 18 17 18 nan nan nan nan nan nan nan nan nan nan nan nan nan nan nan nan nan nan nan nan nan nan nan nan nan nan nan nan nan
31 25 29 23 20 18 18 17 18 17 19 17 17 17 nan nan nan nan nan nan nan nan nan nan nan nan nan nan nan nan nan nan nan nan nan nan nan nan nan nan nan nan nan
28 28 18 16 17 18 15 16 17 23 18 12 13 17 nan nan nan nan nan nan nan nan nan nan nan nan nan nan nan nan nan nan nan nan nan nan nan nan nan nan nan nan nan
33 30 23 14 25 19 20 21 20 18 14 12 9 14 nan nan nan nan nan nan nan nan nan nan nan nan nan nan nan nan nan nan nan nan nan nan nan nan nan nan nan nan nan
30 28 nan 23 12 14 12 18 15 17 20 13 15 nan nan nan nan nan nan nan nan nan nan nan nan nan nan nan nan nan nan nan nan nan nan nan nan nan nan nan nan nan nan
30 29 28 16 15 14 16 17 18 16 18 17 20 nan nan nan nan nan nan nan nan nan nan nan nan nan nan nan nan nan nan nan nan nan nan nan nan nan nan nan nan nan nan
31 32 30 19 18 16 16 16 19 18 13 14 19 nan nan nan nan nan nan nan nan nan nan nan nan nan nan nan nan nan nan nan nan nan nan nan nan nan nan nan nan nan nan
32 32 26 15 12 15 12 12 13 17 15 14 20 17 nan nan nan nan nan nan nan nan nan nan nan nan nan nan nan nan nan nan nan nan nan nan nan nan nan nan nan nan nan
26 27 25 16 16 16 19 17 17 18 15 19 18 21 24 nan nan nan nan nan nan nan nan nan nan nan nan nan nan nan nan nan nan nan nan nan nan nan nan nan nan nan nan
23 21 23 23 19 19 20 nan 27 27 nan 30 27 25 29 nan nan nan nan nan nan nan nan nan nan nan nan nan nan nan nan nan nan nan nan nan nan nan nan nan nan nan nan
23 21 23 nan nan nan nan nan nan 27 34 35 34 nan nan nan nan nan nan nan nan nan nan nan nan nan nan nan nan nan nan nan nan nan nan nan nan nan nan nan nan nan nan
nan nan nan nan nan nan nan nan nan nan nan nan nan nan nan nan nan nan nan nan nan nan nan nan nan nan nan nan nan nan nan nan nan nan nan nan nan nan nan nan nan nan nan
nan nan nan nan nan nan nan nan nan nan nan 36 nan nan nan nan nan nan nan nan nan nan nan nan nan nan nan nan nan nan nan nan nan nan nan nan nan nan nan nan nan nan nan
nan nan nan nan nan nan nan nan nan nan nan nan nan nan nan nan nan nan nan nan nan nan nan nan nan nan nan nan nan nan nan nan nan nan nan nan nan nan nan nan nan nan nan
nan nan nan nan nan nan nan nan nan nan nan nan nan nan nan nan nan nan nan nan nan nan nan nan nan nan nan nan nan nan nan nan nan nan nan nan nan nan nan nan nan nan nan
37 nan nan nan nan nan nan nan nan nan nan nan nan nan nan nan nan nan nan nan nan nan nan nan nan nan nan nan nan nan nan nan nan nan nan nan nan nan nan nan nan nan nan
40 nan nan nan nan nan nan nan nan nan nan nan nan nan nan nan nan nan nan nan nan nan nan nan nan nan nan nan nan nan nan nan nan nan nan nan nan nan nan nan nan nan nan
40 nan nan nan nan nan nan nan nan nan nan nan nan nan nan nan nan nan nan nan nan nan nan nan nan nan nan nan nan nan nan nan nan nan nan nan nan nan nan nan nan nan nan
42 41 41 nan nan nan nan nan nan nan nan nan nan nan nan nan nan nan 32 nan nan nan nan nan nan nan nan nan nan nan nan nan nan nan nan nan nan nan nan nan nan nan nan
39 38 34 36 nan nan nan nan nan nan nan nan nan nan nan nan nan nan nan nan nan nan nan nan nan nan nan nan nan nan nan nan nan nan nan nan nan nan nan nan nan nan nan
Wind_Direction
331 336 334 288 281 273 268 254 230 230 253 245 225 225 265 253 234 270 241 nan nan 197 191 206 246 261 315 327 327 329 329 309 nan nan nan nan nan nan nan nan nan nan nan
338 342 331 300 296 293 284 281 272 258 254 235 228 233 238 234 227 252 nan nan nan nan nan nan nan nan nan 292 305 297 299 306 nan nan nan nan nan nan nan nan nan nan nan
348 352 14 336 308 287 285 280 288 286 263 248 230 235 242 244 245 238 258 nan nan nan nan nan nan nan nan 290 289 nan nan nan nan nan nan nan nan nan nan nan nan nan nan
352 344 330 318 286 279 283 289 289 282 270 255 246 248 257 258 nan nan nan nan nan nan nan nan nan nan nan 282 287 nan nan nan nan nan nan nan nan nan nan nan nan nan nan
354 326 311 307 295 282 287 276 279 283 269 272 272 270 257 nan nan nan nan nan nan nan nan nan nan nan nan nan nan nan nan nan nan nan nan nan nan nan nan nan nan nan nan
352 311 297 292 288 285 272 266 274 280 285 284 283 271 nan nan nan nan nan nan nan nan nan nan nan nan nan nan nan nan nan nan nan nan nan nan nan nan nan nan nan nan nan
335 330 305 302 282 284 270 274 278 282 284 279 274 275 nan nan nan nan nan nan nan nan nan nan nan nan nan nan nan nan nan nan nan nan nan nan nan nan nan nan nan nan nan
331 324 321 297 275 272 273 278 276 284 289 274 272 276 nan nan nan nan nan nan nan nan nan nan nan nan nan nan nan nan nan nan nan nan nan nan nan nan nan nan nan nan nan
320 312 293 240 252 258 277 275 280 284 286 272 262 269 nan nan nan nan nan nan nan nan nan nan nan nan nan nan nan nan nan nan nan nan nan nan nan nan nan nan nan nan nan
311 306 282 220 218 221 250 255 276 277 271 270 271 274 nan nan nan nan nan nan nan nan nan nan nan nan nan nan nan nan nan nan nan nan nan nan nan nan nan nan nan nan nan
310 307 nan 219 201 253 293 213 263 266 262 253 259 nan nan nan nan nan nan nan nan nan nan nan nan nan nan nan nan nan nan nan nan nan nan nan nan nan nan nan nan nan nan
312 303 297 304 263 264 282 246 256 255 247 256 266 nan nan nan nan nan nan nan nan nan nan nan nan nan nan nan nan nan nan nan nan nan nan nan nan nan nan nan nan nan nan
312 306 278 282 260 238 221 216 236 253 266 277 274 nan nan nan nan nan nan nan nan nan nan nan nan nan nan nan nan nan nan nan nan nan nan nan nan nan nan nan nan nan nan
311 312 280 280 261 238 236 250 279 287 295 303 279 270 nan nan nan nan nan nan nan nan nan nan nan nan nan nan nan nan nan nan nan nan nan nan nan nan nan nan nan nan nan
304 304 277 276 289 295 290 286 286 279 282 295 289 289 292 nan nan nan nan nan nan nan nan nan nan nan nan nan nan nan nan nan nan nan nan nan nan nan nan nan nan nan nan
313 318 293 277 270 269 271 nan 271 276 nan 274 271 285 281 nan nan nan nan nan nan nan nan nan nan nan nan nan nan nan nan nan nan nan nan nan nan nan nan nan nan nan nan
305 290 289 nan nan nan nan nan nan 283 282 279 279 nan nan nan nan nan nan nan nan nan nan nan nan nan nan nan nan nan nan nan nan nan nan nan nan nan nan nan nan nan nan
nan nan nan nan nan nan nan nan nan nan nan nan nan nan nan nan nan nan nan nan nan nan nan nan nan nan nan nan nan nan nan nan nan nan nan nan nan nan nan nan nan nan nan
nan nan nan nan nan nan nan nan nan nan nan 296 nan nan nan nan nan nan nan nan nan nan nan nan nan nan nan nan nan nan nan nan nan nan nan nan nan nan nan nan nan nan nan
nan nan nan nan nan nan nan nan nan nan nan nan nan nan nan nan nan nan nan nan nan nan nan nan nan nan nan nan nan nan nan nan nan nan nan nan nan nan nan nan nan nan nan
nan nan nan nan nan nan nan nan nan nan nan nan nan nan nan nan nan nan nan nan nan nan nan nan nan nan nan nan nan nan nan nan nan nan nan nan nan nan nan nan nan nan nan
286 nan nan nan nan nan nan nan nan nan nan nan nan nan nan nan nan nan nan nan nan nan nan nan nan nan nan nan nan nan nan nan nan nan nan nan nan nan nan nan nan nan nan
289 nan nan nan nan nan nan nan nan nan nan nan nan nan nan nan nan nan nan nan nan nan nan nan nan nan nan nan nan nan nan nan nan nan nan nan nan nan nan nan nan nan nan
288 nan nan nan nan nan nan nan nan nan nan nan nan nan nan nan nan nan nan nan nan nan nan nan nan nan nan nan nan nan nan nan nan nan nan nan nan nan nan nan nan nan nan
297 293 293 nan nan nan nan nan nan nan nan nan nan nan nan nan nan nan 285 nan nan nan nan nan nan nan nan nan nan nan nan nan nan nan nan nan nan nan nan nan nan nan nan
296 297 295 297 nan nan nan nan nan nan nan nan nan nan nan nan nan nan nan nan nan nan nan nan nan nan nan nan nan nan nan nan nan nan nan nan nan nan nan nan nan nan nan